Regional Weather Roundup
Issued by NWS Wakefield, VA

Home | Current Version | Previous Version | Graphics & Text | Print | Product List | Glossary On
Versions: 1 2 3 4 5 6 7 8 9 10 11 12 13 14 15 16 17 18 19 20 21 22 23 24 25 26 27 28 29 30 31 32 33 34 35 36 37 38 39 40 41 42 43 44 45 46 47 48 49 50
000
ASUS41 KAKQ 170815
RWRAKQ

REGIONAL WEATHER ROUNDUP
NATIONAL WEATHER SERVICE WAKEFIELD VA
300 AM EST FRI NOV 17 2017

Note: "fair" indicates few or no clouds below 12,000 feet with no
significant weather and/or obstructions to visibility. * = Denotes
station may not report precipitation (e.g., rain,snow,etc.),
thunder or fog.

VAZ042-051-052>054-056-170900-
NORTHERN VIRGINIA

CITY           SKY/WX    TMP DP  RH WIND       PRES   REMARKS
WASH NATIONAL  MOCLDY    45  30  55 W10       30.14R
DULLES         MOCLDY    41  30  65 W12       30.13S
FORT BELVOIR   CLOUDY    44  28  53 W6        30.15R
QUANTICO       NOT AVBL
FREDERICKSBRG* PTCLDY    37  32  82 CALM      30.16S
STAFFORD*      CLEAR     35  30  82 CALM      30.20S
WARRENTON      NOT AVBL
CULPEPER*      PTCLDY    37  30  74 CALM      30.17S
MANASSAS*      PTCLDY    43  29  57 W14       30.16S
LEESBURG*      CLOUDY    43  32  65 NW7       30.14S
WINCHESTER     PTCLDY    37  28  70 NW14G21   30.14R
FRONT ROYAL*   CLOUDY    41  30  65 CALM      30.15R
LURAY*         SUNNY     41  30  65 W5        30.16S
$$

VAZ048-049-060>072-079>083-170900-
CENTRAL AND SOUTH CENTRAL VIRGINIA

CITY           SKY/WX    TMP DP  RH WIND       PRES   REMARKS
RICHMOND       CLEAR     38  30  73 N9        30.15R
CHESTERFIELD*  NOT AVBL
PETERSBURG*    CLEAR     32  22  66 CALM      30.17R
HANOVER        CLEAR     35  30  82 NW3       30.17S
TAPPAHANNOCK*    N/A    N/A N/A N/A MISG        N/A
QUINTON*       FAIR      39  31  72 CALM      30.15S
CHARLOTTSVILLE CLEAR     43  27  53 W9        30.16S
GORDONSVILLE*  MOSUNNY   33  29  86 CALM      30.16S
ORANGE*        PTCLDY    30  27  86 CALM      30.16S
LOUISA*        CLEAR     29  27  94 SW3       30.20S
BUMPASS*       FAIR      32  29  90 SW3       30.16S
FARMVILLE*     CLEAR     40  32  73 CALM      30.16S
CREWE*         FAIR      37  32  84 NW6       30.16S
FORT PICKETT*  NOT AVBL
CHASE CITY*    FAIR      33  31  94 CALM      30.17S
CLARKSVILLE*   FAIR      39  32  75 CALM      30.18R
SOUTH HILL*    CLEAR     35  32  87 N3        30.22R
LAWRENCEVILLE* FAIR      35  32  90 CALM      30.17R
EMPORIA*       CLEAR     32  30  93 CALM      30.18R
$$

VAZ088>098-170900-
SOUTHEAST VIRGINIA

CITY           SKY/WX    TMP DP  RH WIND       PRES   REMARKS
NORFOLK        CLEAR     47  35  63 N10       30.13R
VIRGINIA BEACH NOT AVBL
NORFOLK NAVAL  NOT AVBL
WEST POINT*    PTCLDY    42  30  64 N5        30.17S
SALUDA*        FAIR      44  34  66 NW10G21   30.14S
NEWPORT NEWS   CLEAR     44  30  57 N10       30.14R
LANGLEY AFB    CLEAR     43  31  61 N14       30.13R
FORT EUSTIS    CLEAR     44  30  56 N12G17    30.11S
WILLIAMSBURG*  CLEAR     43  34  70 N6G16     30.14S
HR EXEC AP*    NOT AVBL
FRANKLIN*      CLEAR     36  31  82 CALM      30.16R
US460-WAKEFLD  CLEAR     36  32  85 CALM      30.15R
$$

VAZ020-022-025-037-045-170900-
WEST CENTRAL AND SOUTHWEST VIRGINIA

CITY           SKY/WX    TMP DP  RH WIND       PRES   REMARKS
STAUNTON*      CLEAR     29  25  85 CALM      30.19R
WAYNESBORO*    MOSUNNY   34  27  74 W5        30.17S
HOT SPRINGS VA CLOUDY    28  26  92 NW14      30.10R WCI  17
LYNCHBURG      CLEAR     37  27  67 N3        30.18R
DANVILLE       CLEAR     40  31  70 N10       30.19R
SOUTH BOSTON*  FAIR      35  28  77 N5        30.20R
MARTINSVILLE   PTCLDY    39  30  71 N7        30.21S
ROANOKE        CLEAR     37  27  67 NW6       30.22S
BLACKSBURG     CLEAR     33  28  80 W9        30.22S
DUBLIN*        CLEAR     35  30  83 NW5       30.22R
MARION*        CLEAR     35  30  84 CALM      30.22R
HILLSVILLE*    CLEAR     33  30  87 N14       30.14S WCI  24
RICHLANDS*     CLOUDY    33  30  88 CALM      30.21R
WISE*          CLOUDY    34  34 100 N5        30.21R
ABINGDON*      CLEAR     34  32  94 CALM      30.20R
$$

MDZ021>025-VAZ099-100-170900-
SOUTHERN MARYLAND AND THE DELMARVA PENINSULA

CITY           SKY/WX    TMP DP  RH WIND       PRES   REMARKS
PATUXENT RIVER NOT AVBL
BAY BRIDGE APT CLOUDY    45  32  61 W12G17    30.11R
LEONARDTOWN    CLEAR     37  32  81 W6        30.14S
DOVER          CLOUDY    44  42  93 W10G20    30.07R
GEORGETOWN     CLEAR     43  31  62 W6        30.09R
EASTON         PTCLDY    46  31  56 NW8       30.14R
CAMBRIDGE        N/A    N/A N/A N/A MISG        N/A
SALISBURY      CLEAR     42  32  67 W8        30.09S
OCEAN CITY     CLEAR     42  32  67 NW8       30.09R
WALLOPS ISLAND PTCLDY    42  33  70 W6        30.11S
ACCOMACK*      CLEAR     45  32  61 NW10G20   30.12R
$$

NCZ012>017-030>032-170900-
NORTH CENTRAL AND EASTERN NORTH CAROLINA

CITY           SKY/WX    TMP DP  RH WIND       PRES   REMARKS
ROANOKE RAPIDS FAIR      36  32  87 CALM      30.16R
RALEIGH        PTCLDY    42  31  64 NE6       30.17R
ELIZABETH CITY CLEAR     45  37  73 N13       30.12R
AHOSKIE*       CLEAR     39  33  78 CALM      30.16R
EDENTON*       CLEAR     44  36  72 N5        30.14R
CURRITUCK*     CLEAR     45  36  69 N6        30.12R
KILL DEVIL HLS CLEAR     50  38  63 N12       30.08R
MANTEO         CLEAR     49  40  69 N12       30.10R
CAPE HATTERAS  CLEAR     54  46  74 N12G24    30.08R
TARBORO*       NOT AVBL
GOLDSBORO      CLEAR     46  32  56 N6        30.13R
WASHINGTON     CLEAR     42  36  79 N7        30.14R
GREENVILLE     CLEAR     37  32  81 N6        30.16
NEW BERN       CLEAR     44  38  79 N8        30.13R
WILMINGTON     CLEAR     46  38  73 N6        30.12R
$$

VAZ048-170900-
ELSEWHERE

CITY           SKY/WX    TMP DP  RH WIND       PRES   REMARKS
HARRISBURG PA  PTCLDY    42  28  57 NW18G30   30.08R
BALTIMORE      PTCLDY    41  30  65 W8        30.10R
ANNAPOLIS      NOT AVBL
ANDREWS AFB    PTCLDY    43  29  57 W10       30.11S
PHILADELPHIA   MOCLDY    46  29  51 NW13      30.04R
HENDERSON NC   CLEAR     39  28  63 CALM      30.17R
GREENSBORO     CLEAR     41  29  62 N3        30.16S
ROCKY MOUNT    CLEAR     42  33  70 N6        30.17R
$$

VAZ100-170900-
MARINE

STATION/POSITION TIME  TEMP    WIND        PRES    WAVE   SWELL
                       AIR SEA DIR/SP/G            HT/PER HT/PER
                 (UTC) (F)     (DEG/KT/KT) (MB)    (FT/S) (FT/S)
BRANDYWINE LGT   0742   47     310/ 23/ 29 1018.0R
CAPE MAY NJ      0748   47 50  310/ 20/ 28 1017.1R
LEWES DE         0742   42 53  260/  8/ 12 1018.1R
15NM E FENWICK I 0750   49 59  290/ 25/ 33 1017.5R   5/ 6   2/12
OCEAN-CITY-INLET 0742   44 52  310/ 10/ 13 1019.0R
WACHAPREAGUE VA  0742   45 53  300/  7/ 16 1019.5R
THOMAS POINT MD  0800   45 52  280/ 13/ 15   N/A
GOOSES REEF MD   0800   47 54  320/ 19/ 23 1015.6    2/ 3
COVE POINT MD    0742   44     320/ 10/ 14 1020.6R
SOLOMONS ISLAND  0742   44 55  300/  4/  7 1019.9R
BISHOPS HEAD MD  0742   45 49  300/ 20/ 21 1020.1S
PINEY POINT MD   0742          340/ 19/ 22   N/A
POTOMAC MD       0800   47 56  330/ 21/ 27 1019.4    3/ 3
CAMBRIDGE MD     0742   45 51              1020.1R
LEWISETTA VA     0742   43 51  290/  7/ 10 1020.4S
RAPPAHANNOCK LGT 0742          320/ 25/ 31 1020.4R
STINGRAY PT      0800   45 55  340/ 16/ 19 1020.3    2/ 3
YORK RVR RNG VA  0742   46     360/ 27/ 31 1020.2R
YORKTOWN VA      0742   45 56  340/ 15/ 22 1020.3R
JAMESTOWN VA     0800      54  360/ 10/ 12   N/A
DOMINION TERM VA 0742   45     360/  3/  5 1020.6R
KIPTOPEKE VA     0742      54  360/ 15/ 22   N/A
CAPE HENRY VA    0742   48     340/ 22/ 26   N/A
WILLOUBY STN VA  0742   45     350/ 13/ 17 1020.3R
S CRANEY ISL VA  0742   46     350/  9/ 15 1020.4R
CAPE HENRY BUOY  0800      61                N/A     5/ 5   2/13
1ST LANDING BUOY 0800   47 57  360/ 21/ 25 1020.5    3/ 3
CAPE CHARLES BUO 0751      58                N/A     4/11   2/11
64NM E OF VA BCH 0750   52 61  350/ 23/ 29 1018.0R   8/ 6   3/12
DUCK PIER NC     0742   49 58  330/ 19/ 22 1018.5R
44100 DUCK FRF   0745      62                N/A     7/ 6   2/13
44056 DUCK FRF   0800      59                N/A     6/ 6   2/12
OREGON INLET NC  0742   52 58  350/ 12/ 19 1018.8R
HATTERAS NC      0742   55 60   10/ 21/ 25 1018.1R
DIAMOND SHLS NC  0800   59 65  360/ 23/ 27 1018.1
CAPE LOOKOUT NC  0800   52     360/ 17/ 20 1019.2R
$$



USA.gov is the U.S. government's official web portal to all federal, state and local government web resources and services.